Weather History for Clinton, MO

Change the Weather History Date:

Friday, January 11, 2013

  Actual Average (KSZL) Record (KSZL)
Temperature  
Mean Temperature 56 °F -  
Max Temperature 64 °F 36 °F 62 °F (2013)
Min Temperature 48 °F 20 °F -5 °F (1997)
Degree Days  
Heating Degree Days 9    
Growing Degree Days 6 (Base 50)    
Moisture  
Dew Point 47 °F    
Average Humidity 71    
Maximum Humidity 100    
Minimum Humidity 49    
Precipitation  
Precipitation 0.00 in - - ()
Sea Level Pressure  
Sea Level Pressure 29.73 in    
Wind  
Wind Speed 10 mph (South)    
Max Wind Speed 16 mph    
Max Gust Speed 24 mph    
Visibility 9 miles    
Events      
Averages and records for this station are not official NWS values.
T = Trace of Precipitation, MM = Missing Value Source: NWS Daily Summary

Daily Weather History Graph

Daily Weather History Graph

Search for Another Location

Airport:

Trip Planner

Search our weather history database for the weather conditions in past years. The results will help you decide how hot, cold, wet, or windy it might be!

Date:

Astronomy

Jan. 11, 2013 Rise Set
Actual Time 7:31 AM CST 5:14 PM CST
Civil Twilight 7:02 AM CST 5:43 PM CST
Nautical Twilight 6:29 AM CST 6:16 PM CST
Astronomical Twilight 5:57 AM CST 6:48 PM CST
Moon 7:05 AM CST (1/11) 5:32 PM CST (1/11)
Length of Visible Light 10h 41m
Length of Day
9h 43m
Waning Crescent, 0% of the Moon is Illuminated
Jan 11
Waning Crescent
Jan 11
New
Jan 18
First Quarter
Jan 26
Full
Feb 3
Last Quarter

Hourly Weather History & Observations

Time (CST) Temp. Dew Point Humidity Pressure Visibility Wind Dir Wind Speed Gust Speed Precip Events Conditions
12:15 AM 50.0 °F 50.0 °F 100% 29.78 in 8.0 mi SSW 6.9 mph - N/A   Scattered Clouds
12:35 AM 50.0 °F 50.0 °F 100% 29.78 in 8.0 mi SSW 8.1 mph - N/A   Mostly Cloudy
12:55 AM 50.0 °F 50.0 °F 100% 29.79 in 8.0 mi SW 13.8 mph 18.4 mph N/A   Overcast
1:15 AM 50.0 °F 50.0 °F 100% 29.80 in 7.0 mi SW 9.2 mph - N/A   Overcast
1:35 AM 50.0 °F 50.0 °F 100% 29.81 in 7.0 mi SSW 9.2 mph - N/A   Overcast
1:55 AM 51.8 °F 50.0 °F 94% 29.81 in 7.0 mi SW 10.4 mph - N/A   Overcast
2:15 AM 50.0 °F 50.0 °F 100% 29.80 in 5.0 mi SSW 6.9 mph - N/A   Overcast
2:35 AM 50.0 °F 50.0 °F 100% 29.79 in 5.0 mi SSW 6.9 mph - N/A   Overcast
2:55 AM 50.0 °F 50.0 °F 100% 29.79 in 5.0 mi SSW 6.9 mph - N/A   Overcast
3:15 AM 50.0 °F 50.0 °F 100% 29.79 in 4.0 mi SSW 6.9 mph - N/A   Overcast
3:35 AM 50.0 °F 50.0 °F 100% 29.80 in 5.0 mi SSW 6.9 mph - N/A   Overcast
3:55 AM 51.8 °F 50.0 °F 94% 29.80 in 5.0 mi SSW 6.9 mph - N/A   Overcast
4:15 AM 50.0 °F 50.0 °F 100% 29.79 in 5.0 mi SSW 6.9 mph - N/A   Overcast
4:35 AM 51.8 °F 50.0 °F 94% 29.79 in 5.0 mi South 8.1 mph - N/A   Overcast
4:55 AM 51.8 °F 50.0 °F 94% 29.77 in 6.0 mi South 9.2 mph - N/A   Overcast
5:15 AM 51.8 °F 48.2 °F 88% 29.79 in 7.0 mi South 10.4 mph - N/A   Overcast
5:35 AM 51.8 °F 48.2 °F 88% 29.78 in 9.0 mi SSW 9.2 mph - N/A   Overcast
5:55 AM 51.8 °F 48.2 °F 88% 29.78 in 9.0 mi South 9.2 mph - N/A   Overcast
6:35 AM 51.8 °F 48.2 °F 88% 29.79 in 10.0 mi South 9.2 mph - N/A   Overcast
6:55 AM 51.8 °F 48.2 °F 88% 29.78 in 10.0 mi South 9.2 mph - N/A   Overcast
7:15 AM 50.0 °F 46.4 °F 87% 29.79 in 10.0 mi South 8.1 mph - N/A   Scattered Clouds
7:35 AM 48.2 °F 46.4 °F 93% 29.78 in 10.0 mi South 9.2 mph - N/A   Clear
7:55 AM 48.2 °F 46.4 °F 93% 29.77 in 8.0 mi South 9.2 mph - N/A   Clear
8:15 AM 48.2 °F 46.4 °F 93% 29.77 in 8.0 mi South 10.4 mph - N/A   Clear
8:35 AM 48.2 °F 46.4 °F 93% 29.77 in 9.0 mi South 9.2 mph - N/A   Clear
8:55 AM 50.0 °F 46.4 °F 87% 29.77 in 9.0 mi South 12.7 mph 19.6 mph N/A   Clear
9:35 AM 51.8 °F 46.4 °F 82% 29.75 in 9.0 mi South 12.7 mph 21.9 mph N/A   Clear
9:55 AM 53.6 °F 46.4 °F 77% 29.75 in 10.0 mi South 13.8 mph 23.0 mph N/A   Clear
10:15 AM 55.4 °F 46.4 °F 72% 29.75 in 10.0 mi South 12.7 mph 19.6 mph N/A   Clear
10:35 AM 55.4 °F 46.4 °F 72% 29.75 in 10.0 mi South 15.0 mph 21.9 mph N/A   Clear
10:55 AM 55.4 °F 46.4 °F 72% 29.74 in 10.0 mi South 12.7 mph 19.6 mph N/A   Clear
11:15 AM 55.4 °F 46.4 °F 72% 29.72 in 10.0 mi South 13.8 mph - N/A   Clear
11:35 AM 57.2 °F 46.4 °F 67% 29.70 in 10.0 mi South 11.5 mph 18.4 mph N/A   Clear
11:55 AM 59.0 °F 46.4 °F 63% 29.69 in 10.0 mi South 13.8 mph 23.0 mph N/A   Clear
12:15 PM 60.8 °F 48.2 °F 63% 29.69 in 10.0 mi South 16.1 mph 24.2 mph N/A   Clear
12:35 PM 62.6 °F 48.2 °F 59% 29.69 in 10.0 mi SSW 16.1 mph 23.0 mph N/A   Clear
12:55 PM 64.4 °F 48.2 °F 56% 29.69 in 9.0 mi SSW 15.0 mph 23.0 mph N/A   Clear
1:15 PM 64.4 °F 46.4 °F 52% 29.67 in 9.0 mi SW 15.0 mph 20.7 mph N/A   Clear
1:55 PM 62.6 °F 44.6 °F 52% 29.68 in 10.0 mi SSW 9.2 mph - N/A   Clear
2:15 PM 64.4 °F 44.6 °F 49% 29.67 in 10.0 mi SSW 13.8 mph 23.0 mph N/A   Clear
2:35 PM 64.4 °F 44.6 °F 49% 29.67 in 10.0 mi South 12.7 mph 21.9 mph N/A   Clear
2:55 PM 64.4 °F 46.4 °F 52% 29.67 in 9.0 mi South 11.5 mph - N/A   Clear
3:15 PM 64.4 °F 46.4 °F 52% 29.67 in 10.0 mi South 12.7 mph 20.7 mph N/A   Clear
3:35 PM 64.4 °F 46.4 °F 52% 29.66 in 10.0 mi South 12.7 mph 18.4 mph N/A   Clear
3:55 PM 64.4 °F 46.4 °F 52% 29.66 in 10.0 mi South 11.5 mph 18.4 mph N/A   Clear
4:15 PM 64.4 °F 44.6 °F 49% 29.67 in 10.0 mi South 15.0 mph 19.6 mph N/A   Clear
4:35 PM 62.6 °F 44.6 °F 52% 29.66 in 10.0 mi South 15.0 mph - N/A   Clear
4:55 PM 62.6 °F 44.6 °F 52% 29.66 in 10.0 mi South 15.0 mph - N/A   Clear
5:15 PM 62.6 °F 44.6 °F 52% 29.66 in 10.0 mi South 12.7 mph 21.9 mph N/A   Clear
5:35 PM 62.6 °F 44.6 °F 52% 29.67 in 10.0 mi South 13.8 mph 18.4 mph N/A   Clear
5:55 PM 62.6 °F 44.6 °F 52% 29.67 in 10.0 mi South 11.5 mph - N/A   Clear
6:15 PM 62.6 °F 44.6 °F 52% 29.68 in 10.0 mi South 12.7 mph - N/A   Clear
6:35 PM 62.6 °F 44.6 °F 52% 29.68 in 10.0 mi South 13.8 mph - N/A   Clear
6:55 PM 62.6 °F 44.6 °F 52% 29.68 in 10.0 mi South 12.7 mph 18.4 mph N/A   Clear
7:15 PM 62.6 °F 44.6 °F 52% 29.69 in 10.0 mi South 12.7 mph - N/A   Clear
7:35 PM 62.6 °F 44.6 °F 52% 29.69 in 10.0 mi South 13.8 mph - N/A   Clear
7:55 PM 60.8 °F 44.6 °F 55% 29.69 in 10.0 mi South 15.0 mph 18.4 mph N/A   Clear
8:15 PM 62.6 °F 44.6 °F 52% 29.69 in 10.0 mi South 13.8 mph 21.9 mph N/A   Clear
8:35 PM 62.6 °F 44.6 °F 52% 29.70 in 10.0 mi South 13.8 mph 19.6 mph N/A   Clear
8:55 PM 62.6 °F 44.6 °F 52% 29.70 in 10.0 mi South 12.7 mph 19.6 mph N/A   Clear
9:15 PM 60.8 °F 44.6 °F 55% 29.71 in 10.0 mi South 13.8 mph - N/A   Clear
9:35 PM 60.8 °F 44.6 °F 55% 29.71 in 10.0 mi South 15.0 mph 23.0 mph N/A   Clear
9:55 PM 60.8 °F 44.6 °F 55% 29.71 in 10.0 mi South 13.8 mph - N/A   Clear
10:15 PM 60.8 °F 44.6 °F 55% 29.72 in 10.0 mi South 12.7 mph 23.0 mph N/A   Clear
10:35 PM 60.8 °F 44.6 °F 55% 29.73 in 10.0 mi South 11.5 mph 19.6 mph N/A   Clear
10:55 PM 60.8 °F 44.6 °F 55% 29.73 in 10.0 mi South 13.8 mph 19.6 mph N/A   Clear
11:35 PM 59.0 °F 44.6 °F 59% 29.74 in 10.0 mi South 11.5 mph 18.4 mph N/A   Clear
11:55 PM 59.0 °F 44.6 °F 59% 29.75 in 10.0 mi SSW 13.8 mph 18.4 mph N/A   Clear